This is the latest recevied weather packets stored in our database for station/object G4KVI. If no packets are shown the sender has not sent any weather packets the latest 10 day(s).
| Time | Temp. | Humidity | Pressure | Rain* | Wind** | Luminosity | Snow |
|---|---|---|---|---|---|---|---|
| 1787511604 | 21.11° C | 40% | 1024.9 hPa | 0 mm | - | 10 W/m² | - |
| 1787511304 | 21.67° C | 39% | 1024.7 hPa | 0 mm | - | 13 W/m² | - |
| 1787511004 | 21.67° C | 37% | 1024.7 hPa | 0 mm | - | 17 W/m² | - |
| 1787510704 | 22.22° C | 37% | 1024.6 hPa | 0 mm | - | 23 W/m² | - |
| 1787510404 | 22.22° C | 37% | 1024.7 hPa | 0 mm | - | 30 W/m² | - |
| 1787510104 | 22.22° C | 37% | 1024.8 hPa | 0 mm | - | 36 W/m² | - |
| 1787509804 | 22.22° C | 36% | 1024.6 hPa | 0 mm | - | 39 W/m² | - |
| 1787509504 | 22.22° C | 35% | 1024.7 hPa | 0 mm | - | 45 W/m² | - |
| 1787509204 | 22.22° C | 35% | 1024.9 hPa | 0 mm | - | 52 W/m² | - |
| 1787508904 | 22.22° C | 35% | 1024.7 hPa | 0 mm | - | 59 W/m² | - |
| 1787508604 | 22.22° C | 35% | 1024.9 hPa | 0 mm | - | 63 W/m² | - |
| 1787508304 | 22.78° C | 35% | 1024.7 hPa | 0 mm | - | 60 W/m² | - |
| 1787508004 | 22.78° C | 35% | 1024.7 hPa | 0 mm | - | 68 W/m² | - |
| 1787507704 | 22.78° C | 34% | 1024.9 hPa | 0 mm | - | 64 W/m² | - |
| 1787507404 | 23.33° C | 34% | 1024.8 hPa | 0 mm | - | 52 W/m² | - |
| 1787507104 | 23.33° C | 34% | 1024.8 hPa | 0 mm | - | 59 W/m² | - |
| 1787506804 | 23.33° C | 33% | 1024.8 hPa | 0 mm | - | 95 W/m² | - |
| 1787506504 | 23.33° C | 32% | 1024.8 hPa | 0 mm | - | 144 W/m² | - |
| 1787506204 | 23.89° C | 32% | 1024.9 hPa | 0 mm | - | 164 W/m² | - |
| 1787505904 | 23.89° C | 32% | 1024.7 hPa | 0 mm | - | 177 W/m² | - |
| 1787505604 | 22.78° C | 33% | 1024.8 hPa | 0 mm | - | 175 W/m² | - |
| 1787505304 | 22.78° C | 34% | 1025 hPa | 0 mm | - | 114 W/m² | - |
| 1787505004 | 23.33° C | 33% | 1024.9 hPa | 0 mm | - | 78 W/m² | - |
| 1787504704 | 23.33° C | 33% | 1024.9 hPa | 0 mm | - | 114 W/m² | - |
| 1787504404 | 22.78° C | 34% | 1025.1 hPa | 0 mm | - | 190 W/m² | - |
* Rain latest hour (hover to see other rain measurements)
** Current wind speed in m/s (hover to see current wind gust speed)